Precipitable_Water
0.87 0.90 0.94 0.96 0.98 0.98 1.01 1.05 1.07 1.13 1.16 1.18 1.16 1.17 1.20 1.23 1.24 1.27 1.33 1.34 1.35 1.32 1.34 1.35 1.37 1.43 1.49 1.52 1.49 1.43 1.42 1.44 1.45 1.43 1.42 1.45 1.49 1.47 1.48 1.49 1.45 1.49 1.48 1.64 1.62 1.54 1.47 1.47 1.51 1.60 1.68 1.67 1.69 1.70 1.72 1.72 1.65 1.60 1.59 1.58 1.51 1.52 1.53 1.47 1.33 1.30 1.39 1.57 1.56 1.54 1.63 1.66 1.61 1.66 1.63 1.68 1.75 1.79 1.77 1.76 1.76 1.74 1.73 1.74 1.79
0.89 0.93 0.96 0.95 0.95 0.97 1.02 1.07 1.06 1.09 1.10 1.13 1.14 1.18 1.21 1.23 1.25 1.26 1.27 1.36 1.41 1.40 1.39 1.43 1.48 1.53 1.56 1.57 1.53 1.46 1.41 1.43 1.47 1.47 1.42 1.42 1.41 1.44 1.47 1.48 1.45 1.44 1.43 1.56 1.73 1.67 1.54 1.49 1.49 1.52 1.59 1.62 1.64 1.64 1.74 1.70 1.58 1.52 1.55 1.58 1.54 1.51 1.54 1.48 1.38 1.36 1.24 1.43 1.50 1.60 1.59 1.69 1.57 1.71 1.64 1.65 1.73 1.78 1.72 1.70 1.72 1.73 1.72 1.72 1.73
0.93 0.96 0.93 0.92 0.92 0.96 1.02 1.06 1.08 1.07 1.06 1.08 1.11 1.14 1.18 1.20 1.25 1.23 1.25 1.33 1.43 1.46 1.45 1.47 1.49 1.53 1.58 1.57 1.54 1.55 1.57 1.57 1.57 1.57 1.51 1.47 1.46 1.46 1.50 1.57 1.57 1.54 1.47 1.53 1.73 1.76 1.66 1.59 1.59 1.59 1.60 1.59 1.62 1.65 1.69 1.65 1.58 1.55 1.57 1.64 1.61 1.59 1.61 1.62 1.52 1.42 1.40 1.37 1.48 1.51 1.52 1.59 1.58 1.60 1.71 1.76 1.80 1.81 1.73 1.68 1.63 1.67 1.71 1.71 1.71
0.92 0.93 0.91 0.90 0.93 0.96 0.99 1.04 1.07 1.06 1.05 1.07 1.08 1.12 1.16 1.19 1.25 1.25 1.27 1.35 1.40 1.43 1.48 1.51 1.54 1.56 1.57 1.56 1.56 1.53 1.56 1.57 1.57 1.59 1.59 1.56 1.51 1.47 1.49 1.55 1.59 1.56 1.48 1.47 1.53 1.63 1.62 1.58 1.67 1.68 1.65 1.60 1.62 1.66 1.70 1.66 1.57 1.57 1.61 1.67 1.69 1.64 1.64 1.69 1.71 1.63 1.59 1.45 1.44 1.46 1.50 1.53 1.60 1.70 1.78 1.81 1.78 1.77 1.78 1.74 1.70 1.65 1.67 1.72 1.74
0.90 0.91 0.90 0.90 0.93 0.95 0.97 1.00 1.02 1.05 1.06 1.08 1.08 1.12 1.17 1.21 1.26 1.27 1.29 1.33 1.39 1.43 1.47 1.52 1.53 1.55 1.56 1.57 1.60 1.62 1.59 1.64 1.63 1.59 1.59 1.61 1.58 1.54 1.54 1.54 1.50 1.46 1.42 1.39 1.43 1.49 1.53 1.51 1.59 1.65 1.66 1.63 1.65 1.70 1.72 1.65 1.57 1.55 1.56 1.64 1.69 1.70 1.67 1.69 1.74 1.69 1.60 1.52 1.50 1.55 1.52 1.53 1.61 1.67 1.77 1.72 1.72 1.71 1.73 1.69 1.63 1.60 1.62 1.68 1.74
0.89 0.89 0.89 0.91 0.93 0.96 0.98 1.00 1.02 1.05 1.09 1.11 1.12 1.14 1.19 1.23 1.25 1.31 1.33 1.32 1.39 1.45 1.46 1.50 1.53 1.54 1.56 1.58 1.64 1.70 1.68 1.63 1.61 1.65 1.58 1.51 1.47 1.46 1.44 1.42 1.43 1.41 1.40 1.40 1.40 1.45 1.51 1.58 1.64 1.63 1.61 1.64 1.67 1.67 1.67 1.64 1.60 1.55 1.53 1.60 1.68 1.72 1.67 1.69 1.70 1.61 1.58 1.56 1.55 1.52 1.50 1.46 1.49 1.59 1.70 1.71 1.61 1.56 1.61 1.67 1.67 1.63 1.59 1.57 1.63
0.87 0.88 0.88 0.93 0.93 0.96 1.00 1.03 1.07 1.11 1.14 1.15 1.18 1.19 1.21 1.24 1.26 1.29 1.36 1.37 1.42 1.45 1.49 1.48 1.51 1.54 1.56 1.60 1.60 1.67 1.69 1.67 1.65 1.65 1.60 1.55 1.50 1.47 1.47 1.47 1.46 1.45 1.45 1.45 1.45 1.47 1.50 1.57 1.66 1.67 1.61 1.60 1.67 1.74 1.74 1.65 1.60 1.58 1.59 1.60 1.69 1.75 1.74 1.67 1.61 1.58 1.60 1.58 1.58 1.56 1.47 1.48 1.49 1.46 1.61 1.69 1.63 1.59 1.55 1.56 1.52 1.59 1.60 1.57 1.55
0.85 0.86 0.87 0.91 0.92 0.96 1.03 1.09 1.15 1.16 1.18 1.20 1.19 1.21 1.24 1.26 1.25 1.28 1.35 1.38 1.42 1.47 1.47 1.45 1.47 1.51 1.55 1.59 1.61 1.64 1.66 1.67 1.68 1.69 1.67 1.65 1.65 1.63 1.60 1.57 1.57 1.57 1.56 1.54 1.52 1.52 1.54 1.59 1.67 1.72 1.69 1.64 1.60 1.59 1.63 1.63 1.66 1.70 1.73 1.68 1.72 1.77 1.77 1.67 1.61 1.63 1.65 1.66 1.58 1.47 1.47 1.42 1.47 1.53 1.57 1.56 1.48 1.49 1.57 1.56 1.47 1.46 1.46 1.52 1.61
0.80 0.82 0.84 0.86 0.90 0.97 1.04 1.13 1.18 1.17 1.17 1.19 1.21 1.22 1.24 1.26 1.25 1.24 1.27 1.35 1.43 1.45 1.46 1.44 1.44 1.48 1.54 1.58 1.60 1.62 1.64 1.70 1.74 1.75 1.73 1.69 1.67 1.66 1.67 1.67 1.67 1.66 1.64 1.60 1.58 1.57 1.58 1.62 1.68 1.72 1.74 1.72 1.68 1.60 1.55 1.67 1.81 1.79 1.73 1.68 1.68 1.75 1.75 1.69 1.65 1.63 1.64 1.63 1.56 1.54 1.48 1.44 1.42 1.39 1.37 1.38 1.35 1.37 1.54 1.63 1.58 1.57 1.57 1.54 1.61
0.78 0.81 0.79 0.81 0.90 0.95 1.02 1.08 1.12 1.14 1.14 1.15 1.19 1.23 1.26 1.28 1.27 1.25 1.29 1.36 1.40 1.42 1.42 1.41 1.42 1.45 1.49 1.54 1.57 1.60 1.63 1.72 1.78 1.79 1.75 1.70 1.69 1.68 1.67 1.68 1.68 1.70 1.70 1.65 1.62 1.62 1.62 1.65 1.70 1.74 1.75 1.73 1.71 1.67 1.60 1.59 1.71 1.77 1.73 1.69 1.66 1.70 1.72 1.67 1.61 1.57 1.58 1.56 1.53 1.52 1.48 1.43 1.38 1.35 1.33 1.37 1.45 1.53 1.56 1.61 1.56 1.58 1.62 1.57 1.60
0.80 0.82 0.80 0.81 0.87 0.94 1.00 1.04 1.07 1.08 1.10 1.13 1.14 1.18 1.24 1.27 1.28 1.28 1.33 1.36 1.37 1.39 1.40 1.37 1.40 1.45 1.48 1.52 1.55 1.61 1.65 1.71 1.75 1.72 1.66 1.72 1.77 1.69 1.66 1.69 1.72 1.73 1.75 1.72 1.65 1.66 1.69 1.72 1.74 1.78 1.79 1.78 1.78 1.76 1.70 1.62 1.60 1.65 1.71 1.75 1.75 1.69 1.66 1.65 1.62 1.60 1.58 1.55 1.57 1.57 1.52 1.44 1.38 1.37 1.35 1.38 1.46 1.49 1.54 1.61 1.60 1.59 1.54 1.48 1.39
0.82 0.81 0.84 0.84 0.85 0.91 0.96 1.01 1.03 1.05 1.08 1.08 1.10 1.14 1.20 1.26 1.29 1.34 1.38 1.38 1.38 1.39 1.38 1.36 1.39 1.43 1.46 1.51 1.59 1.64 1.66 1.69 1.68 1.65 1.66 1.70 1.71 1.70 1.75 1.74 1.75 1.79 1.80 1.80 1.76 1.72 1.70 1.72 1.76 1.81 1.82 1.79 1.75 1.75 1.77 1.72 1.66 1.65 1.69 1.72 1.72 1.73 1.74 1.71 1.64 1.61 1.63 1.60 1.59 1.58 1.55 1.48 1.39 1.36 1.35 1.39 1.43 1.51 1.57 1.57 1.58 1.60 1.60 1.55 1.52
0.85 0.84 0.85 0.85 0.83 0.87 0.91 0.94 0.95 0.98 1.03 1.08 1.12 1.17 1.20 1.25 1.27 1.29 1.32 1.37 1.40 1.36 1.35 1.35 1.37 1.42 1.44 1.46 1.51 1.59 1.60 1.59 1.57 1.62 1.62 1.64 1.66 1.67 1.75 1.81 1.76 1.75 1.76 1.80 1.81 1.79 1.75 1.73 1.74 1.77 1.79 1.79 1.75 1.72 1.71 1.71 1.71 1.68 1.71 1.73 1.73 1.72 1.71 1.73 1.74 1.69 1.70 1.69 1.65 1.63 1.60 1.51 1.39 1.33 1.39 1.49 1.58 1.49 1.54 1.53 1.56 1.64 1.67 1.58 1.53
0.83 0.83 0.84 0.83 0.81 0.82 0.84 0.85 0.87 0.92 0.98 1.05 1.13 1.15 1.20 1.23 1.27 1.30 1.32 1.34 1.35 1.34 1.34 1.32 1.36 1.41 1.45 1.44 1.44 1.47 1.50 1.51 1.56 1.62 1.62 1.63 1.66 1.69 1.75 1.79 1.78 1.73 1.73 1.78 1.83 1.79 1.76 1.75 1.74 1.74 1.77 1.75 1.69 1.64 1.62 1.62 1.61 1.64 1.68 1.69 1.64 1.63 1.65 1.69 1.69 1.72 1.79 1.79 1.76 1.65 1.63 1.57 1.39 1.35 1.51 1.66 1.60 1.53 1.53 1.54 1.63 1.65 1.65 1.58 1.61
0.84 0.86 0.85 0.83 0.80 0.78 0.78 0.79 0.84 0.89 0.95 1.02 1.08 1.12 1.18 1.24 1.26 1.28 1.29 1.29 1.30 1.31 1.32 1.29 1.33 1.42 1.44 1.43 1.43 1.42 1.47 1.50 1.55 1.60 1.62 1.64 1.69 1.72 1.77 1.79 1.77 1.74 1.77 1.82 1.85 1.89 1.86 1.80 1.74 1.71 1.71 1.65 1.59 1.58 1.58 1.63 1.65 1.66 1.67 1.64 1.58 1.57 1.60 1.62 1.67 1.77 1.90 1.88 1.74 1.67 1.63 1.59 1.49 1.50 1.64 1.79 1.76 1.74 1.77 1.73 1.75 1.78 1.80 1.83 1.74
0.89 0.90 0.86 0.81 0.74 0.72 0.74 0.77 0.84 0.90 0.94 0.98 1.02 1.08 1.14 1.14 1.13 1.18 1.23 1.24 1.28 1.32 1.33 1.31 1.34 1.40 1.43 1.45 1.41 1.39 1.45 1.49 1.53 1.57 1.60 1.63 1.69 1.73 1.75 1.78 1.77 1.74 1.78 1.82 1.82 1.85 1.86 1.86 1.82 1.75 1.70 1.67 1.64 1.65 1.69 1.70 1.66 1.64 1.65 1.66 1.65 1.63 1.62 1.68 1.85 1.92 1.88 1.88 1.84 1.73 1.61 1.56 1.60 1.65 1.74 1.85 1.88 1.87 1.87 1.90 1.91 1.83 1.77 1.70 1.54
0.95 0.91 0.87 0.79 0.71 0.69 0.71 0.75 0.81 0.87 0.93 0.95 0.97 1.04 1.08 1.07 1.06 1.09 1.11 1.14 1.17 1.21 1.26 1.27 1.36 1.38 1.39 1.43 1.40 1.38 1.43 1.48 1.50 1.55 1.59 1.62 1.72 1.76 1.72 1.76 1.73 1.72 1.75 1.77 1.80 1.84 1.82 1.81 1.82 1.79 1.78 1.76 1.78 1.76 1.75 1.72 1.65 1.60 1.60 1.61 1.64 1.63 1.64 1.83 1.88 1.92 1.94 1.91 1.81 1.70 1.66 1.70 1.75 1.77 1.82 1.91 1.89 1.82 1.81 1.75 1.72 1.75 1.60 1.48 1.48
1.00 0.93 0.86 0.79 0.67 0.64 0.65 0.70 0.75 0.81 0.89 0.93 0.96 0.98 1.04 1.04 1.02 1.05 1.02 1.03 1.05 1.14 1.23 1.27 1.34 1.39 1.38 1.39 1.41 1.37 1.42 1.47 1.48 1.50 1.57 1.61 1.72 1.75 1.73 1.75 1.69 1.69 1.76 1.80 1.83 1.83 1.80 1.80 1.79 1.77 1.75 1.76 1.78 1.79 1.77 1.77 1.70 1.67 1.60 1.62 1.63 1.66 1.78 1.82 1.85 1.90 1.90 1.85 1.78 1.75 1.74 1.78 1.81 1.84 1.88 1.91 1.89 1.85 1.76 1.61 1.69 1.63 1.48 1.45 1.42
0.99 0.93 0.84 0.77 0.72 0.66 0.61 0.64 0.71 0.77 0.82 0.89 0.94 0.93 0.93 0.96 0.98 1.01 0.99 1.00 1.02 1.10 1.19 1.24 1.30 1.37 1.40 1.38 1.40 1.37 1.41 1.43 1.47 1.48 1.53 1.60 1.67 1.74 1.72 1.71 1.63 1.64 1.73 1.77 1.78 1.76 1.76 1.73 1.79 1.79 1.81 1.82 1.82 1.82 1.80 1.80 1.71 1.69 1.68 1.63 1.63 1.60 1.65 1.73 1.73 1.72 1.73 1.72 1.72 1.72 1.70 1.76 1.80 1.82 1.85 1.88 1.89 1.86 1.79 1.70 1.72 1.56 1.44 1.46 1.50
1.02 0.98 0.89 0.81 0.77 0.71 0.63 0.64 0.70 0.74 0.75 0.82 0.90 0.90 0.93 0.97 0.98 0.98 0.97 1.01 1.01 1.04 1.10 1.16 1.21 1.26 1.34 1.37 1.38 1.38 1.38 1.39 1.43 1.48 1.48 1.51 1.57 1.64 1.71 1.62 1.60 1.63 1.62 1.67 1.68 1.75 1.75 1.77 1.78 1.78 1.75 1.72 1.73 1.73 1.73 1.74 1.69 1.69 1.67 1.63 1.58 1.56 1.69 1.74 1.79 1.77 1.73 1.69 1.66 1.68 1.69 1.74 1.76 1.79 1.81 1.80 1.76 1.76 1.75 1.75 1.76 1.68 1.56 1.55 1.53
1.04 0.99 0.90 0.84 0.77 0.72 0.70 0.69 0.66 0.71 0.77 0.82 0.87 0.89 0.92 0.94 0.99 1.01 0.98 1.02 1.02 1.01 1.03 1.08 1.11 1.16 1.26 1.33 1.35 1.39 1.40 1.37 1.39 1.42 1.47 1.47 1.46 1.49 1.58 1.59 1.61 1.60 1.61 1.59 1.60 1.59 1.60 1.59 1.60 1.59 1.57 1.58 1.58 1.59 1.62 1.66 1.66 1.67 1.66 1.64 1.63 1.67 1.73 1.68 1.71 1.77 1.74 1.70 1.68 1.68 1.66 1.65 1.65 1.65 1.63 1.64 1.63 1.65 1.67 1.69 1.72 1.70 1.64 1.57 1.49
1.06 0.99 0.90 0.83 0.78 0.77 0.77 0.74 0.70 0.74 0.79 0.82 0.82 0.82 0.87 0.94 0.98 1.02 1.02 1.03 1.00 0.97 0.98 1.00 1.03 1.07 1.15 1.25 1.30 1.34 1.40 1.38 1.40 1.37 1.39 1.46 1.47 1.46 1.50 1.54 1.56 1.55 1.53 1.53 1.50 1.50 1.50 1.50 1.48 1.50 1.51 1.51 1.52 1.53 1.56 1.58 1.61 1.61 1.60 1.64 1.67 1.68 1.68 1.69 1.72 1.72 1.66 1.63 1.63 1.60 1.57 1.56 1.54 1.54 1.57 1.57 1.57 1.58 1.62 1.64 1.66 1.68 1.69 1.65 1.55
1.11 1.00 0.92 0.87 0.83 0.81 0.80 0.77 0.70 0.72 0.74 0.79 0.79 0.78 0.82 0.86 0.91 1.01 1.00 0.97 0.94 0.91 0.89 0.89 0.89 0.95 1.01 1.10 1.21 1.28 1.34 1.37 1.39 1.39 1.35 1.37 1.44 1.47 1.46 1.49 1.51 1.49 1.44 1.38 1.40 1.43 1.46 1.45 1.45 1.46 1.47 1.49 1.49 1.50 1.52 1.53 1.56 1.58 1.61 1.63 1.65 1.64 1.64 1.64 1.68 1.68 1.62 1.61 1.58 1.54 1.51 1.47 1.45 1.51 1.56 1.57 1.60 1.62 1.64 1.66 1.68 1.69 1.70 1.75 1.77
1.15 1.04 0.94 0.90 0.86 0.84 0.84 0.82 0.78 0.74 0.75 0.75 0.72 0.70 0.73 0.78 0.82 0.89 0.93 0.91 0.87 0.84 0.85 0.85 0.81 0.81 0.87 0.94 1.04 1.16 1.28 1.30 1.30 1.35 1.37 1.35 1.35 1.41 1.45 1.45 1.50 1.49 1.44 1.38 1.42 1.43 1.43 1.43 1.43 1.43 1.44 1.44 1.44 1.46 1.49 1.50 1.49 1.50 1.55 1.56 1.58 1.59 1.60 1.59 1.62 1.60 1.61 1.59 1.55 1.49 1.45 1.46 1.46 1.48 1.53 1.58 1.61 1.66 1.66 1.66 1.67 1.71 1.75 1.73 1.71
1.11 1.02 0.93 0.89 0.87 0.88 0.90 0.87 0.82 0.78 0.78 0.76 0.70 0.66 0.65 0.68 0.69 0.74 0.77 0.80 0.82 0.80 0.81 0.83 0.79 0.75 0.75 0.80 0.92 1.03 1.16 1.23 1.20 1.23 1.32 1.37 1.39 1.36 1.38 1.43 1.42 1.45 1.44 1.43 1.39 1.40 1.41 1.42 1.43 1.42 1.42 1.42 1.44 1.45 1.46 1.47 1.48 1.48 1.49 1.52 1.55 1.53 1.55 1.54 1.58 1.54 1.50 1.50 1.46 1.44 1.43 1.44 1.45 1.47 1.53 1.54 1.60 1.67 1.67 1.65 1.69 1.72 1.73 1.73 1.73
1.05 1.01 0.94 0.92 0.92 0.94 0.93 0.89 0.87 0.85 0.83 0.81 0.76 0.74 0.71 0.69 0.67 0.68 0.70 0.73 0.78 0.78 0.77 0.79 0.77 0.73 0.70 0.70 0.82 0.95 1.04 1.11 1.14 1.15 1.22 1.32 1.38 1.37 1.39 1.38 1.38 1.40 1.41 1.44 1.44 1.43 1.42 1.40 1.38 1.39 1.40 1.42 1.42 1.42 1.42 1.43 1.45 1.46 1.47 1.47 1.43 1.45 1.48 1.47 1.49 1.42 1.42 1.44 1.44 1.41 1.43 1.47 1.47 1.49 1.52 1.53 1.51 1.51 1.56 1.53 1.58 1.62 1.68 1.65 1.59
1.01 0.99 0.94 0.96 0.98 0.96 0.93 0.92 0.91 0.89 0.87 0.84 0.81 0.76 0.76 0.77 0.74 0.71 0.72 0.71 0.73 0.77 0.78 0.80 0.78 0.76 0.70 0.65 0.68 0.80 0.92 0.99 1.04 1.07 1.12 1.18 1.23 1.30 1.38 1.42 1.41 1.40 1.41 1.39 1.39 1.39 1.38 1.39 1.38 1.40 1.40 1.40 1.39 1.40 1.40 1.41 1.41 1.41 1.42 1.44 1.43 1.39 1.37 1.39 1.37 1.38 1.38 1.36 1.36 1.38 1.42 1.43 1.48 1.48 1.46 1.47 1.46 1.49 1.54 1.56 1.54 1.55 1.55 1.58 1.62
0.98 0.94 0.95 0.99 0.98 0.96 0.96 0.97 0.95 0.89 0.87 0.87 0.84 0.80 0.79 0.81 0.79 0.78 0.77 0.75 0.73 0.72 0.75 0.79 0.81 0.82 0.79 0.75 0.70 0.67 0.71 0.79 0.86 0.90 0.96 1.02 1.08 1.17 1.23 1.31 1.38 1.41 1.41 1.40 1.38 1.36 1.33 1.33 1.34 1.36 1.38 1.36 1.36 1.35 1.33 1.33 1.34 1.36 1.39 1.41 1.41 1.44 1.43 1.46 1.47 1.43 1.41 1.39 1.36 1.38 1.39 1.40 1.35 1.38 1.40 1.40 1.41 1.43 1.46 1.46 1.48 1.45 1.49 1.52 1.48
0.95 0.94 0.97 0.98 0.97 0.99 0.98 0.98 0.95 0.91 0.88 0.89 0.90 0.90 0.88 0.87 0.86 0.85 0.89 0.90 0.85 0.80 0.77 0.80 0.84 0.87 0.89 0.86 0.81 0.74 0.70 0.68 0.69 0.75 0.80 0.85 0.90 0.97 1.05 1.10 1.18 1.24 1.35 1.42 1.43 1.41 1.35 1.30 1.26 1.25 1.23 1.22 1.24 1.26 1.27 1.30 1.33 1.37 1.39 1.38 1.37 1.37 1.37 1.37 1.34 1.35 1.36 1.37 1.34 1.31 1.31 1.34 1.33 1.33 1.32 1.33 1.34 1.35 1.38 1.38 1.40 1.37 1.35 1.31 1.23
0.93 0.94 0.96 0.95 0.95 0.97 0.99 0.99 0.97 0.93 0.91 0.90 0.90 0.92 0.99 0.99 0.98 0.93 0.92 0.95 0.94 0.93 0.90 0.86 0.88 0.90 0.89 0.92 0.93 0.84 0.78 0.79 0.82 0.79 0.76 0.75 0.77 0.82 0.90 0.98 1.05 1.11 1.17 1.22 1.28 1.29 1.29 1.28 1.28 1.27 1.26 1.25 1.22 1.20 1.21 1.27 1.30 1.32 1.36 1.39 1.38 1.36 1.36 1.36 1.35 1.35 1.35 1.34 1.33 1.32 1.32 1.31 1.29 1.29 1.27 1.26 1.29 1.30 1.30 1.27 1.28 1.30 1.21 1.19 1.15
0.92 0.92 0.93 0.92 0.94 0.97 0.99 0.97 0.96 0.95 0.95 0.94 0.91 0.89 0.90 0.96 1.01 1.03 1.03 1.01 0.99 0.97 0.96 0.95 0.94 0.94 0.93 0.91 0.95 0.97 0.93 0.90 0.88 0.87 0.85 0.83 0.80 0.78 0.80 0.85 0.90 0.95 1.03 1.05 1.03 1.04 1.06 1.10 1.14 1.16 1.20 1.27 1.28 1.27 1.27 1.25 1.24 1.24 1.27 1.32 1.36 1.35 1.35 1.35 1.35 1.36 1.35 1.34 1.33 1.33 1.32 1.28 1.26 1.27 1.25 1.24 1.24 1.24 1.24 1.24 1.23 1.24 1.21 1.20 1.18
0.92 0.92 0.93 0.94 0.95 0.97 0.96 0.94 0.94 0.93 0.94 0.96 0.93 0.90 0.88 0.86 0.89 0.98 1.03 1.04 1.05 1.02 1.00 0.98 0.97 0.95 0.95 0.95 0.95 0.95 0.96 0.92 0.89 0.87 0.86 0.86 0.85 0.82 0.81 0.81 0.84 0.87 0.89 0.91 0.84 0.85 0.90 0.92 0.95 1.00 1.08 1.13 1.18 1.23 1.25 1.25 1.25 1.24 1.23 1.23 1.27 1.33 1.34 1.32 1.35 1.35 1.33 1.33 1.30 1.29 1.28 1.28 1.27 1.26 1.27 1.26 1.25 1.23 1.21 1.20 1.20 1.21 1.20 1.21 1.21
0.96 0.96 0.95 0.95 0.97 1.00 0.98 0.95 0.93 0.92 0.92 0.93 0.93 0.91 0.88 0.86 0.83 0.84 0.93 1.02 1.06 1.06 1.04 1.03 1.00 0.98 0.97 0.98 1.00 0.98 0.96 0.95 0.94 0.90 0.87 0.86 0.85 0.84 0.82 0.81 0.82 0.84 0.85 0.81 0.77 0.76 0.78 0.81 0.83 0.92 0.98 1.02 1.07 1.09 1.11 1.15 1.18 1.21 1.22 1.23 1.23 1.27 1.30 1.34 1.38 1.35 1.33 1.30 1.30 1.29 1.30 1.27 1.26 1.26 1.25 1.24 1.21 1.18 1.19 1.17 1.19 1.19 1.18 1.17 1.20
0.98 0.99 0.99 0.98 0.98 0.99 0.98 0.96 0.93 0.91 0.93 0.95 0.96 0.95 0.92 0.89 0.86 0.86 0.85 0.88 0.95 1.03 1.06 1.06 1.04 1.02 0.99 0.97 0.97 0.98 1.00 0.99 0.98 0.96 0.92 0.88 0.85 0.85 0.82 0.80 0.81 0.81 0.80 0.76 0.77 0.75 0.76 0.75 0.79 0.85 0.90 0.95 0.97 0.98 1.01 1.05 1.10 1.14 1.16 1.17 1.20 1.24 1.26 1.29 1.29 1.29 1.29 1.28 1.27 1.27 1.26 1.25 1.23 1.20 1.18 1.18 1.18 1.17 1.14 1.12 1.12 1.11 1.10 1.10 1.11
0.97 1.00 1.03 1.05 1.02 0.99 0.96 0.94 0.92 0.94 0.97 0.99 1.00 0.98 0.94 0.91 0.88 0.87 0.85 0.85 0.86 0.87 0.91 0.98 1.03 1.03 1.01 1.00 0.98 0.98 0.99 1.00 0.99 0.97 0.94 0.93 0.91 0.87 0.84 0.78 0.72 0.74 0.77 0.78 0.77 0.76 0.77 0.82 0.82 0.84 0.87 0.89 0.91 0.93 0.97 0.99 1.01 1.04 1.07 1.11 1.14 1.17 1.20 1.21 1.21 1.23 1.22 1.22 1.21 1.21 1.21 1.19 1.18 1.16 1.13 1.09 1.06 1.04 1.04 1.05 1.06 1.06 1.03 1.04 1.05
0.98 0.97 0.99 1.01 1.01 0.99 0.96 0.93 0.94 0.94 0.96 0.98 1.00 0.97 0.95 0.91 0.88 0.88 0.90 0.91 0.90 0.89 0.90 0.94 0.97 1.00 1.02 1.03 1.03 1.01 1.00 0.99 1.00 0.99 0.96 0.94 0.92 0.90 0.81 0.76 0.71 0.70 0.69 0.72 0.73 0.75 0.81 0.85 0.87 0.91 0.93 0.92 0.92 0.94 0.97 0.94 0.94 0.96 0.98 1.02 1.04 1.08 1.11 1.11 1.11 1.13 1.15 1.14 1.14 1.15 1.17 1.18 1.18 1.14 1.12 1.10 1.07 1.04 1.02 1.02 1.02 1.02 1.00 0.98 0.99
1.01 0.99 0.98 0.96 0.95 0.95 0.95 0.97 0.97 0.97 0.96 0.95 0.93 0.91 0.91 0.90 0.89 0.89 0.89 0.89 0.90 0.92 0.91 0.92 0.93 0.94 0.97 1.00 1.03 1.03 1.03 1.03 1.03 1.02 1.01 0.98 0.96 0.92 0.86 0.83 0.80 0.78 0.75 0.73 0.72 0.72 0.75 0.81 0.87 0.92 0.94 0.94 0.93 0.93 0.93 0.89 0.89 0.90 0.94 0.96 0.97 1.00 1.02 1.04 1.08 1.08 1.07 1.07 1.09 1.08 1.08 1.11 1.15 1.15 1.10 1.04 1.02 0.99 0.97 0.98 0.98 0.96 0.95 0.93 0.92
1.02 1.00 0.98 0.96 0.97 0.97 0.98 0.99 0.99 0.98 0.95 0.93 0.92 0.92 0.92 0.91 0.91 0.91 0.90 0.89 0.90 0.89 0.88 0.88 0.88 0.87 0.86 0.90 0.99 0.99 1.01 1.03 1.04 1.05 1.07 1.07 1.02 0.97 0.93 0.90 0.87 0.83 0.81 0.82 0.82 0.79 0.76 0.80 0.86 0.92 0.94 0.94 0.94 0.95 0.95 0.92 0.89 0.86 0.87 0.90 0.93 0.95 0.98 1.00 1.03 1.04 1.04 1.03 1.02 1.01 0.99 0.99 1.02 1.03 1.03 0.99 0.96 0.94 0.91 0.89 0.87 0.86 0.85 0.85 0.81
1.10 1.07 1.03 1.02 1.02 1.02 1.01 0.99 0.98 0.94 0.91 0.88 0.87 0.86 0.86 0.85 0.86 0.87 0.87 0.88 0.89 0.90 0.90 0.89 0.88 0.87 0.88 0.92 0.93 0.98 0.97 0.94 0.95 0.96 1.00 1.04 1.08 1.07 1.02 0.97 0.92 0.89 0.88 0.87 0.87 0.87 0.86 0.86 0.90 0.94 0.95 0.95 0.94 0.93 0.92 0.93 0.92 0.91 0.89 0.86 0.86 0.89 0.91 0.91 0.91 0.92 0.92 0.94 0.98 1.00 1.00 0.97 0.96 0.95 0.94 0.92 0.90 0.89 0.88 0.86 0.85 0.82 0.80 0.77 0.75
1.11 1.16 1.15 1.10 1.04 1.02 1.01 0.99 0.96 0.92 0.87 0.82 0.82 0.83 0.83 0.83 0.83 0.84 0.84 0.83 0.84 0.86 0.86 0.86 0.85 0.86 0.90 0.91 0.91 0.93 0.89 0.90 0.93 0.95 0.96 0.98 1.01 1.04 1.04 1.02 1.00 0.95 0.91 0.90 0.91 0.91 0.90 0.91 0.93 0.93 0.95 0.96 0.96 0.95 0.97 0.99 0.99 0.98 0.95 0.91 0.87 0.84 0.85 0.87 0.87 0.86 0.85 0.87 0.88 0.91 0.90 0.90 0.91 0.90 0.88 0.88 0.89 0.90 0.87 0.85 0.83 0.82 0.80 0.77 0.77
1.12 1.18 1.14 1.10 1.04 1.01 0.99 0.97 0.93 0.89 0.86 0.85 0.86 0.85 0.85 0.86 0.87 0.88 0.88 0.87 0.87 0.86 0.86 0.86 0.86 0.87 0.89 0.90 0.91 0.92 0.90 0.88 0.90 0.91 0.93 0.95 0.97 0.99 1.02 1.04 1.05 1.02 1.00 0.97 0.97 0.96 0.93 0.91 0.91 0.92 0.94 0.96 0.97 0.97 0.97 0.98 0.99 0.99 0.98 0.97 0.95 0.94 0.92 0.91 0.90 0.87 0.85 0.82 0.80 0.79 0.80 0.82 0.83 0.83 0.80 0.83 0.87 0.88 0.89 0.89 0.89 0.88 0.87 0.85 0.84
1.11 1.10 1.05 1.04 1.03 1.00 0.97 0.94 0.92 0.92 0.91 0.88 0.87 0.86 0.86 0.87 0.88 0.88 0.87 0.85 0.84 0.83 0.83 0.84 0.85 0.87 0.88 0.88 0.88 0.89 0.88 0.89 0.90 0.90 0.92 0.94 0.95 0.96 0.99 1.01 1.04 1.06 1.05 1.03 1.00 0.98 0.95 0.94 0.92 0.91 0.90 0.91 0.91 0.92 0.94 0.95 0.97 0.96 0.95 0.95 0.95 0.95 0.94 0.93 0.90 0.88 0.87 0.88 0.87 0.85 0.84 0.84 0.84 0.84 0.84 0.85 0.84 0.85 0.85 0.86 0.87 0.88 0.87 0.87 0.86
1.04 1.03 1.02 1.01 0.99 0.97 0.95 0.94 0.94 0.91 0.89 0.85 0.83 0.83 0.83 0.81 0.80 0.78 0.76 0.75 0.75 0.75 0.76 0.78 0.80 0.83 0.84 0.86 0.86 0.86 0.84 0.84 0.84 0.86 0.88 0.90 0.92 0.95 0.96 0.99 1.01 1.04 1.06 1.06 1.04 1.00 0.97 0.94 0.93 0.94 0.93 0.92 0.92 0.92 0.92 0.93 0.95 0.96 0.96 0.96 0.95 0.93 0.92 0.93 0.93 0.92 0.89 0.88 0.89 0.91 0.89 0.88 0.86 0.86 0.87 0.86 0.86 0.85 0.85 0.85 0.85 0.83 0.83 0.85 0.87
1.00 0.99 0.98 0.96 0.95 0.95 0.94 0.93 0.90 0.89 0.87 0.85 0.82 0.79 0.77 0.76 0.74 0.72 0.70 0.68 0.68 0.68 0.68 0.70 0.72 0.73 0.75 0.79 0.80 0.81 0.81 0.82 0.82 0.82 0.83 0.84 0.85 0.88 0.92 0.96 1.00 1.03 1.04 1.04 1.05 1.03 1.00 0.96 0.95 0.96 0.97 0.97 0.96 0.96 0.95 0.95 0.95 0.95 0.96 0.96 0.95 0.94 0.93 0.93 0.92 0.93 0.92 0.90 0.90 0.91 0.91 0.89 0.87 0.87 0.86 0.86 0.85 0.83 0.84 0.85 0.84 0.83 0.82 0.80 0.79
0.96 0.95 0.94 0.92 0.92 0.90 0.89 0.88 0.87 0.85 0.83 0.81 0.78 0.75 0.73 0.68 0.64 0.62 0.61 0.61 0.61 0.61 0.61 0.62 0.63 0.64 0.65 0.66 0.68 0.69 0.72 0.75 0.79 0.81 0.81 0.82 0.83 0.85 0.87 0.89 0.92 0.95 0.98 0.99 1.02 1.04 1.03 1.00 0.97 0.95 0.95 0.96 0.97 0.97 0.97 0.98 0.98 0.97 0.96 0.95 0.95 0.94 0.94 0.95 0.95 0.97 0.97 0.95 0.93 0.92 0.92 0.91 0.88 0.83 0.81 0.81 0.80 0.80 0.79 0.80 0.82 0.83 0.82 0.82 0.79
0.89 0.89 0.88 0.86 0.85 0.84 0.82 0.81 0.79 0.76 0.73 0.69 0.65 0.60 0.57 0.53 0.53 0.53 0.54 0.56 0.58 0.60 0.62 0.63 0.63 0.63 0.63 0.64 0.64 0.65 0.65 0.65 0.67 0.70 0.72 0.76 0.79 0.82 0.85 0.88 0.90 0.92 0.93 0.95 0.96 0.97 0.99 1.00 0.99 0.97 0.95 0.95 0.95 0.96 0.97 0.98 0.99 0.98 0.97 0.96 0.95 0.95 0.96 0.98 1.00 1.01 1.00 0.99 0.96 0.95 0.93 0.92 0.91 0.89 0.86 0.82 0.81 0.79 0.77 0.78 0.79 0.80 0.80 0.80 0.81
0.82 0.82 0.81 0.80 0.78 0.77 0.75 0.73 0.70 0.66 0.62 0.57 0.53 0.50 0.49 0.51 0.53 0.56 0.57 0.58 0.57 0.57 0.57 0.58 0.58 0.59 0.59 0.61 0.62 0.63 0.64 0.65 0.65 0.65 0.65 0.67 0.69 0.71 0.75 0.79 0.84 0.88 0.92 0.94 0.94 0.94 0.95 0.95 0.96 0.97 0.97 0.97 0.96 0.97 0.98 0.99 0.99 0.98 0.98 0.98 0.98 0.99 0.98 0.98 0.98 0.98 0.98 0.98 0.98 0.97 0.96 0.94 0.93 0.92 0.92 0.93 0.87 0.81 0.76 0.72 0.70 0.70 0.72 0.74 0.74
0.80 0.78 0.77 0.74 0.70 0.65 0.62 0.59 0.56 0.54 0.52 0.51 0.51 0.51 0.51 0.51 0.50 0.49 0.48 0.49 0.49 0.49 0.49 0.50 0.50 0.50 0.51 0.53 0.55 0.56 0.57 0.59 0.61 0.63 0.64 0.65 0.67 0.68 0.70 0.72 0.74 0.78 0.82 0.86 0.89 0.92 0.92 0.93 0.93 0.93 0.94 0.94 0.93 0.94 0.95 0.96 0.96 0.97 0.97 0.97 0.98 0.99 1.00 1.01 1.00 0.99 0.98 0.98 0.98 0.97 0.95 0.94 0.93 0.92 0.92 0.90 0.89 0.87 0.81 0.75 0.72 0.68 0.64 0.61 0.62
0.74 0.71 0.66 0.61 0.56 0.53 0.52 0.51 0.51 0.51 0.50 0.49 0.48 0.45 0.43 0.41 0.40 0.39 0.40 0.40 0.41 0.42 0.43 0.44 0.45 0.46 0.47 0.49 0.50 0.49 0.49 0.49 0.51 0.53 0.56 0.58 0.60 0.61 0.63 0.66 0.68 0.71 0.73 0.74 0.77 0.81 0.85 0.87 0.88 0.89 0.89 0.89 0.89 0.89 0.89 0.90 0.90 0.91 0.91 0.93 0.95 0.96 0.97 0.98 0.98 0.97 0.97 0.97 0.97 0.97 0.95 0.94 0.92 0.91 0.91 0.90 0.90 0.90 0.87 0.84 0.77 0.70 0.66 0.63 0.59
0.63 0.57 0.53 0.50 0.51 0.52 0.53 0.52 0.50 0.47 0.44 0.41 0.38 0.36 0.36 0.37 0.37 0.37 0.38 0.38 0.38 0.39 0.40 0.42 0.43 0.43 0.44 0.45 0.46 0.46 0.45 0.46 0.47 0.48 0.49 0.50 0.52 0.53 0.54 0.56 0.58 0.63 0.68 0.69 0.68 0.68 0.70 0.73 0.77 0.80 0.82 0.83 0.84 0.85 0.86 0.86 0.87 0.87 0.87 0.88 0.88 0.89 0.91 0.92 0.93 0.93 0.94 0.95 0.95 0.95 0.95 0.94 0.93 0.91 0.90 0.90 0.89 0.87 0.84 0.82 0.81 0.78 0.71 0.62 0.58
0.54 0.53 0.54 0.55 0.55 0.54 0.49 0.43 0.37 0.35 0.36 0.37 0.36 0.36 0.36 0.35 0.36 0.38 0.38 0.36 0.35 0.36 0.38 0.39 0.41 0.42 0.42 0.43 0.44 0.42 0.41 0.42 0.42 0.43 0.44 0.45 0.47 0.47 0.47 0.47 0.48 0.50 0.54 0.58 0.61 0.63 0.65 0.65 0.65 0.66 0.69 0.72 0.76 0.79 0.81 0.82 0.84 0.85 0.85 0.86 0.86 0.86 0.87 0.88 0.88 0.88 0.89 0.91 0.92 0.93 0.92 0.92 0.92 0.91 0.91 0.90 0.90 0.87 0.85 0.82 0.81 0.78 0.75 0.70 0.65
Wind_Speed
28 27 26 26 26 25 25 25 25 25 24 24 25 25 25 25 25 26 27 27 28 28 29 29 29 30 30 31 32 33 34 34 34 35 35 35 35 35 34 34 34 35 36 35 35 36 35 36 37 37 37 38 41 41 40 39 38 37 35 34 33 33 32 30 29 28 27 26 25 24 23 23 23 22 22 22 22 22 23 24 25 25 25 25 25
27 26 26 26 26 25 25 25 24 24 24 24 24 24 24 24 25 25 26 26 26 26 26 27 27 28 29 29 30 31 32 32 32 33 34 34 34 35 35 34 34 36 36 36 35 36 36 36 37 37 36 37 40 41 40 39 39 37 36 35 34 33 33 32 31 29 28 27 27 26 25 24 24 23 23 22 22 22 23 23 25 25 25 25 25
26 26 25 26 26 25 25 25 25 24 24 24 24 24 24 24 24 24 24 24 23 24 24 25 25 26 27 27 27 28 29 29 29 30 31 32 33 33 34 34 34 35 37 37 36 36 36 36 36 37 36 36 38 39 40 39 38 37 36 35 34 33 33 33 32 31 29 28 28 27 26 25 24 24 23 23 23 23 23 23 24 25 25 25 25
25 25 25 25 25 25 25 25 24 24 24 23 23 23 23 23 22 22 22 21 21 22 22 22 23 24 25 25 25 25 27 27 27 28 28 29 31 32 32 33 34 34 36 38 38 38 38 38 38 37 37 37 37 38 39 39 38 37 37 35 34 34 33 33 33 31 30 29 29 28 27 25 25 24 23 23 23 23 23 23 24 24 25 25 25
25 25 25 25 25 25 25 24 24 24 23 23 23 23 22 22 21 20 19 19 20 20 20 21 22 22 22 22 23 23 25 26 26 26 27 27 29 31 32 33 34 35 36 38 40 40 40 40 41 40 39 39 39 39 39 40 39 38 37 36 35 34 33 33 32 32 32 31 30 29 27 26 25 24 23 23 23 24 24 24 24 24 25 25 25
25 25 25 25 25 24 24 23 23 23 23 23 23 22 22 21 19 18 18 18 18 19 19 19 20 21 21 20 20 21 22 23 24 24 25 26 28 30 32 33 35 36 38 39 40 41 41 41 42 42 41 41 41 40 40 41 40 39 38 36 35 34 34 33 33 32 32 32 31 30 28 27 26 25 24 24 24 24 24 24 24 24 25 25 25
25 25 25 24 24 23 23 23 23 23 22 22 21 21 20 19 18 17 16 16 17 18 18 18 19 19 19 19 19 18 18 20 22 24 25 26 28 30 31 33 35 36 38 40 41 42 42 42 42 43 43 43 42 41 41 41 41 40 39 38 37 36 35 34 33 32 32 32 31 30 29 27 26 26 25 24 24 24 24 24 24 24 24 25 25
25 25 24 23 23 22 22 22 22 22 21 21 20 20 19 18 16 16 15 15 16 18 18 18 18 17 17 17 17 17 17 18 20 22 24 26 27 28 30 32 33 35 37 39 41 42 42 42 42 43 43 43 42 42 41 41 41 41 40 39 38 37 36 35 34 32 32 32 31 30 29 28 27 26 26 25 25 25 24 24 24 24 24 25 25
24 24 23 23 23 22 21 21 21 21 21 20 19 19 19 17 16 15 14 14 16 18 18 17 17 16 16 15 15 16 16 17 18 20 22 24 25 26 27 29 30 32 34 37 39 41 42 42 42 43 44 43 43 43 42 41 41 41 41 40 39 38 37 36 34 33 33 32 31 30 29 28 27 27 26 26 25 25 24 24 24 24 24 24 25
24 23 23 23 22 21 21 21 21 21 20 20 19 19 19 17 16 15 14 14 16 17 17 16 16 16 15 14 14 15 15 16 17 18 20 22 24 24 25 26 27 29 31 34 36 38 39 41 42 43 44 44 43 43 43 43 42 41 41 40 39 38 38 37 35 34 34 32 31 31 29 28 28 27 26 26 26 25 24 24 24 23 23 23 24
23 23 23 23 22 21 21 21 20 21 20 20 20 19 18 17 16 15 15 15 15 16 15 15 15 15 15 14 13 13 14 14 16 18 19 20 21 22 23 24 25 26 28 31 34 35 37 39 40 42 42 42 42 42 42 43 42 41 41 41 40 39 38 38 37 35 35 33 32 31 30 29 28 27 26 26 26 25 24 23 23 23 22 22 22
23 23 22 22 21 21 20 20 20 20 20 20 19 18 17 16 16 15 15 15 15 15 14 14 14 14 14 13 12 12 12 14 16 18 19 19 19 20 21 22 22 23 24 27 30 33 34 36 37 39 40 41 41 40 40 41 42 41 41 41 41 40 39 39 38 37 36 34 33 32 31 29 28 27 26 26 25 24 23 23 23 22 22 21 22
22 22 21 21 21 20 20 20 20 20 19 19 19 18 17 16 15 15 15 15 15 15 14 13 13 13 13 13 12 12 12 14 15 17 17 18 18 18 18 18 19 20 21 23 26 29 30 32 34 36 37 39 39 38 38 39 40 40 41 41 41 40 39 39 39 38 37 36 35 34 32 30 28 27 26 25 24 23 23 23 23 22 22 21 21
21 21 21 20 20 20 20 19 19 19 19 18 17 17 16 16 15 15 15 15 15 15 14 13 13 13 13 13 13 12 12 13 14 15 16 16 16 16 17 17 17 17 18 19 22 24 26 29 32 33 34 36 36 36 36 37 38 39 40 40 40 39 39 39 38 38 37 36 35 34 32 30 29 27 26 25 24 24 23 23 23 23 22 21 20
21 21 20 20 20 19 19 19 19 19 19 18 17 16 16 15 15 15 15 15 15 14 13 13 13 12 12 13 13 12 12 13 13 14 15 15 14 15 15 15 15 14 15 16 18 20 22 25 28 31 32 34 35 35 35 36 36 37 38 38 38 38 38 38 38 37 36 35 34 32 31 29 28 26 25 24 24 23 22 22 22 22 22 21 20
21 21 20 19 19 18 18 18 19 19 19 18 17 16 16 16 15 14 14 14 14 13 12 12 12 12 12 13 13 12 12 12 13 13 13 14 13 12 12 13 12 11 12 14 16 18 20 21 24 27 29 31 32 33 34 34 34 35 36 36 37 37 37 37 36 36 35 34 32 31 30 28 26 25 23 22 22 21 21 20 20 20 20 20 19
20 20 19 18 18 18 18 19 19 19 19 18 17 17 16 15 15 14 14 14 14 13 12 11 11 11 12 13 13 12 11 11 11 11 11 12 10 9 9 9 9 9 9 12 14 16 17 19 21 23 24 27 29 30 31 31 32 33 34 34 35 36 36 35 35 35 34 33 32 30 28 27 25 24 22 21 21 21 20 19 19 18 18 19 18
20 19 19 18 18 18 19 19 19 19 18 18 17 16 16 15 14 14 14 14 14 13 11 11 11 11 12 13 13 12 11 10 10 9 9 9 8 5 4 3 4 5 6 8 12 14 15 16 18 19 20 22 24 26 27 27 27 28 29 30 31 32 33 33 34 34 33 32 30 29 27 26 25 24 22 22 21 21 20 19 18 18 18 18 18
20 19 19 18 18 19 19 19 19 18 18 17 16 15 15 15 13 13 13 14 14 13 11 11 11 11 12 13 13 13 11 10 9 8 7 7 7 3 2 3 2 2 4 5 7 11 13 14 15 17 17 18 20 22 23 24 24 24 24 25 26 27 29 30 31 31 31 30 29 28 27 26 25 24 23 22 22 21 21 20 19 19 19 19 18
19 19 19 19 19 19 19 19 18 17 17 17 16 15 15 14 13 13 14 13 13 13 12 11 10 11 11 12 13 13 11 10 8 6 6 6 6 5 2 2 2 2 4 6 7 9 12 13 14 15 16 16 17 18 20 21 22 23 23 23 24 25 26 27 28 29 29 29 28 27 26 24 24 23 23 23 22 22 21 21 21 21 21 21 20
19 19 19 19 19 18 18 18 17 17 16 16 15 14 14 14 14 14 13 12 12 12 12 11 10 10 10 10 12 12 12 11 8 6 5 4 4 5 5 2 2 3 4 6 7 9 10 12 13 14 14 15 16 17 17 18 20 21 22 22 23 24 24 25 26 27 27 26 25 25 24 23 22 23 22 22 22 22 21 21 21 21 22 21 21
18 18 18 18 18 17 17 16 16 16 15 15 15 14 14 15 15 14 13 12 12 12 12 11 11 10 10 9 10 11 11 11 9 7 5 3 2 3 3 3 2 3 4 5 6 8 9 10 10 12 13 13 14 15 15 16 18 20 20 21 22 22 23 24 25 25 25 24 24 23 22 22 21 21 21 21 21 21 21 20 20 21 21 22 22
18 18 18 18 17 16 16 15 15 15 15 14 14 15 15 14 14 13 12 12 12 12 12 11 11 11 10 9 8 9 10 10 9 8 6 4 3 3 2 1 2 3 4 4 5 7 8 8 9 10 11 11 12 13 14 15 16 18 19 20 20 21 22 23 23 23 23 23 23 22 21 21 20 20 20 21 21 20 20 19 19 20 20 21 21
18 18 17 17 16 15 15 15 14 14 14 13 14 14 14 14 14 13 12 12 12 11 11 11 11 11 10 9 8 7 8 9 8 8 7 5 4 3 2 1 0 1 4 4 4 5 5 7 8 9 10 10 11 12 14 15 16 17 18 19 19 21 22 22 21 22 22 22 22 21 20 20 20 20 20 20 20 21 21 20 19 19 20 20 21
18 17 17 16 15 14 15 14 13 13 13 13 13 13 13 13 14 13 13 13 12 12 11 11 11 11 10 10 9 8 7 8 8 7 7 6 5 4 2 1 1 1 2 4 5 5 5 6 7 8 9 10 11 12 13 14 16 17 18 18 19 20 20 20 20 21 21 21 21 20 20 21 21 20 20 21 21 21 21 21 20 20 20 20 21
17 16 15 14 14 14 13 12 12 12 13 13 13 13 13 13 13 13 13 13 12 12 12 11 11 11 10 10 10 9 8 7 7 7 7 6 5 4 3 2 1 1 2 3 4 5 5 6 6 7 7 8 10 11 12 14 15 16 18 18 19 19 19 19 20 20 21 21 20 20 20 21 21 22 22 21 21 21 21 20 20 20 20 19 20
16 15 14 14 14 13 12 11 12 12 12 12 13 13 13 13 13 13 13 13 13 13 12 12 11 11 10 10 10 10 9 8 8 7 7 6 6 5 3 3 3 2 2 3 3 4 4 5 6 7 8 8 9 10 11 13 14 15 17 18 19 19 19 20 20 20 21 21 21 21 21 21 21 22 22 22 22 21 21 20 20 20 21 20 20
14 14 14 14 13 12 11 11 12 12 12 13 13 13 13 12 13 13 13 13 13 13 13 13 12 11 11 10 10 9 10 9 9 8 7 7 6 6 5 4 4 3 4 4 4 4 5 5 5 6 7 9 9 10 11 12 13 13 14 15 16 18 18 19 19 20 20 21 21 21 21 21 21 21 22 21 21 21 21 21 21 21 22 22 21
14 14 14 14 13 12 11 12 12 12 12 13 13 13 13 13 13 13 13 13 13 13 13 13 13 12 11 10 10 9 10 10 10 9 8 8 7 7 6 5 5 5 5 5 5 5 5 5 6 6 6 7 8 9 10 11 12 13 13 14 15 16 17 18 18 19 19 19 20 20 20 21 21 21 21 21 21 21 21 22 22 22 23 23 23
14 14 14 14 13 12 12 12 12 13 13 13 13 13 13 13 13 13 13 13 13 12 12 13 13 13 12 12 11 10 10 9 9 9 9 9 8 8 7 6 6 6 7 7 6 6 6 6 6 6 6 6 6 7 9 10 11 12 13 14 15 16 17 18 18 19 19 19 19 20 21 21 21 21 21 21 21 21 21 22 22 22 22 23 23
14 14 14 14 13 13 13 13 13 14 14 14 13 13 13 14 13 13 13 13 13 13 13 13 13 13 12 12 12 11 11 10 9 9 9 10 10 9 9 8 7 7 8 8 8 8 8 8 8 8 8 7 7 8 9 9 10 10 11 12 13 14 15 16 17 18 19 19 20 21 21 21 22 22 22 22 22 22 22 22 23 23 23 23 23
14 15 14 14 14 14 14 15 15 15 15 14 13 13 14 14 14 14 13 13 13 13 13 13 13 13 12 12 12 12 12 11 11 10 10 10 10 10 10 9 9 9 9 9 9 9 10 10 10 10 10 10 10 10 10 11 11 11 10 10 11 12 13 15 15 16 17 18 19 20 20 21 21 21 21 21 22 22 22 21 22 22 23 23 23
15 15 14 14 14 14 15 15 16 16 15 14 14 14 14 15 15 14 14 14 13 13 12 12 12 12 12 11 11 12 12 12 12 11 11 11 11 10 10 10 10 10 10 10 10 10 11 11 11 12 12 12 11 11 12 12 12 12 12 12 12 12 13 14 15 15 16 16 17 18 18 19 19 20 20 20 20 20 20 20 20 21 22 22 22
15 15 15 15 15 14 15 15 15 15 14 14 13 14 14 15 15 15 14 14 13 13 12 12 12 12 12 12 11 11 11 12 12 12 12 12 12 11 11 11 10 10 10 10 11 11 11 12 12 13 13 13 13 13 13 12 12 13 14 14 14 13 13 14 15 16 16 16 16 17 17 17 17 18 18 18 18 18 19 20 20 20 20 20 21
15 15 15 15 14 14 14 14 14 14 14 13 13 14 14 14 14 14 13 13 13 13 13 12 12 11 11 12 12 11 11 11 12 12 13 13 13 12 12 12 11 11 11 11 11 12 12 12 12 13 13 14 13 13 13 13 12 13 14 15 15 15 14 15 15 16 17 17 17 17 17 18 18 18 18 17 17 18 18 19 19 19 20 20 20
14 14 15 14 14 14 14 14 14 14 13 13 13 13 14 14 13 13 13 13 13 13 12 13 13 12 12 12 12 12 12 12 12 12 13 13 13 13 13 13 12 12 12 12 12 12 12 13 13 13 14 14 14 14 14 14 13 13 13 14 15 15 16 16 16 16 17 17 18 18 18 18 18 18 18 18 18 18 19 19 19 19 20 20 20
14 14 14 14 14 14 14 14 13 13 13 13 13 13 13 13 13 13 12 12 12 12 12 13 13 13 13 13 13 13 12 12 12 12 12 13 13 13 13 14 14 13 13 13 13 13 13 14 13 13 14 14 15 15 15 15 15 15 14 15 15 16 16 16 16 17 17 18 18 18 18 18 18 18 19 19 19 19 19 19 19 19 19 20 20
15 14 14 14 14 14 13 13 13 12 13 13 13 13 12 12 12 12 11 11 11 12 12 13 13 14 14 14 14 13 13 13 13 13 12 12 12 12 12 13 13 14 14 14 14 14 14 14 14 14 14 14 15 15 16 17 17 16 16 16 16 16 16 17 17 17 18 18 18 19 19 19 19 19 19 20 20 20 20 20 20 20 20 21 21
14 14 13 13 13 13 13 12 12 13 13 13 13 13 12 12 12 12 11 11 11 12 12 13 13 14 14 14 14 14 13 13 13 13 13 13 13 12 12 12 13 13 14 14 14 15 15 15 15 15 15 15 15 15 16 16 17 17 17 17 17 18 18 18 18 19 19 19 20 20 20 20 21 21 21 21 21 21 22 22 22 22 22 22 22
13 12 12 11 12 12 12 12 12 13 12 12 12 12 12 12 11 11 11 11 12 12 12 13 13 14 14 14 14 14 14 14 14 14 14 14 14 14 14 13 14 14 14 14 15 15 15 16 16 16 16 16 16 16 16 15 16 16 17 17 18 18 19 19 19 19 20 20 21 21 21 21 22 22 22 22 22 23 23 23 24 24 24 24 24
12 11 10 10 11 11 11 11 12 12 11 11 11 11 11 11 11 10 11 11 11 12 13 13 14 14 14 14 14 14 14 14 14 15 15 15 15 15 15 15 15 15 15 15 15 15 16 16 17 17 17 17 17 16 16 16 16 16 17 17 17 18 18 19 19 19 20 21 21 22 22 23 23 23 23 24 24 24 24 24 24 25 25 25 24
10 10 10 11 11 11 11 11 11 11 11 11 11 11 11 11 11 11 12 12 13 14 14 15 15 15 16 16 16 15 14 14 14 15 15 15 15 16 16 16 16 16 16 16 17 17 17 17 17 17 18 18 18 18 18 18 18 18 18 18 18 19 19 19 20 20 21 22 22 23 23 23 24 24 24 24 25 25 25 25 25 25 25 25 25
10 10 10 11 11 11 11 11 11 11 11 11 11 12 12 13 13 13 14 14 15 15 16 16 17 17 17 17 17 16 16 16 16 16 16 16 16 16 17 17 17 17 17 17 17 17 17 17 18 18 18 18 19 19 19 19 19 19 19 19 20 20 20 21 21 22 22 23 23 24 24 24 25 25 25 25 25 25 25 26 26 26 27 27 27
9 9 9 10 10 10 10 11 11 11 12 12 13 13 14 14 15 15 16 16 17 17 17 18 18 18 18 18 18 18 17 17 17 17 17 17 17 17 18 18 18 18 18 18 18 18 18 18 18 18 18 18 19 19 20 21 21 21 21 22 21 21 22 22 23 23 23 24 24 25 25 25 25 26 26 26 26 26 26 26 27 27 27 27 27
8 9 9 9 9 10 10 10 11 12 13 13 14 15 15 16 17 17 18 18 19 19 19 19 19 19 20 20 19 19 19 19 18 18 18 18 19 19 19 19 19 19 19 19 20 20 20 19 19 19 19 19 19 19 19 20 20 21 22 22 23 23 23 23 24 24 24 25 25 25 25 25 26 26 26 27 27 27 27 27 27 27 27 27 28
9 9 9 9 10 10 11 11 12 13 14 15 15 16 17 17 18 19 19 19 20 20 20 20 20 20 20 20 20 21 21 20 20 20 20 20 20 20 20 20 20 20 20 20 20 21 21 21 21 20 20 20 19 19 19 19 20 20 21 22 22 23 24 24 24 25 25 25 25 25 25 26 26 27 27 27 27 28 28 28 28 28 28 28 28
10 10 10 10 11 12 13 14 14 15 16 16 17 17 17 18 18 19 19 20 20 20 21 21 21 21 21 21 21 22 22 22 22 22 22 22 22 22 22 21 21 21 21 21 21 21 21 22 22 22 22 21 21 21 21 21 21 21 21 22 22 23 24 24 25 25 26 26 27 27 27 27 27 27 27 28 28 28 28 29 29 29 29 30 30
11 11 12 12 13 14 15 16 16 16 17 17 18 18 18 18 19 19 19 20 20 21 21 21 22 22 22 22 22 22 22 22 23 23 23 23 23 23 23 22 22 22 22 22 22 22 22 22 23 23 23 23 23 24 24 24 24 24 24 24 24 24 24 24 24 25 26 27 27 27 28 28 28 28 28 28 29 29 30 30 30 30 31 31 31
12 13 13 14 15 15 16 16 16 17 17 17 18 18 19 19 19 19 20 20 20 21 21 22 22 22 22 22 23 23 23 23 23 23 24 24 24 24 24 24 23 23 23 22 23 23 23 23 23 24 24 25 26 26 26 26 26 26 26 26 26 25 25 25 25 26 27 27 28 28 28 28 28 29 29 29 29 30 30 31 31 32 32 32 32
13 14 14 15 16 16 17 17 17 17 17 18 18 19 19 19 20 20 20 20 21 21 21 21 22 22 22 22 22 23 23 23 23 23 23 24 24 24 24 25 25 24 24 24 24 24 24 24 24 24 25 26 26 27 27 27 27 28 28 28 29 29 28 28 28 28 28 29 29 29 29 30 30 30 30 31 31 31 31 31 32 33 33 33 32
14 15 15 16 17 17 18 18 18 18 18 17 18 18 19 19 20 20 20 21 21 21 21 21 21 21 22 22 22 22 23 23 23 23 24 24 24 25 25 25 25 25 26 26 27 27 26 26 26 26 27 27 27 28 28 27 27 28 28 29 29 30 31 31 31 31 31 31 32 32 32 32 31 31 31 31 32 32 32 32 32 33 33 34 33
Wind_Direction
321 321 319 318 316 315 313 311 310 308 305 302 299 296 293 291 289 288 286 284 282 279 277 276 274 273 271 270 266 262 259 257 256 255 253 251 250 249 248 248 247 245 244 242 240 240 239 235 232 232 233 232 229 228 230 230 230 232 235 236 238 237 235 235 237 240 241 241 242 244 247 249 252 254 255 254 254 254 255 254 253 253 253 254 254
322 322 321 319 317 316 314 313 311 309 307 305 302 299 296 292 290 289 288 287 285 282 279 277 276 274 273 271 268 263 259 257 256 255 252 250 250 249 249 248 247 245 243 242 240 239 238 234 231 232 233 231 228 227 227 228 229 232 234 235 237 236 235 235 236 238 240 240 241 243 246 249 252 255 256 255 255 256 257 257 255 254 253 254 254
322 323 322 320 318 317 316 314 312 311 309 307 306 303 299 295 292 290 289 288 287 286 282 280 278 277 276 273 269 264 260 257 255 253 251 249 249 250 249 248 247 246 243 241 240 239 237 234 232 231 231 230 227 225 226 227 229 232 233 234 235 235 235 234 235 237 240 240 240 242 245 247 251 254 256 257 258 259 259 258 256 254 253 253 253
323 324 323 321 320 319 319 316 314 313 311 309 308 306 303 299 296 293 290 289 290 289 286 283 282 281 279 274 270 265 260 257 255 252 250 249 249 249 249 248 247 246 244 241 240 239 238 235 233 231 230 229 228 227 226 228 230 231 232 232 233 234 234 233 234 237 239 239 240 242 244 246 250 254 257 258 259 260 259 259 257 255 253 252 252
323 324 323 323 322 322 321 319 316 314 312 311 310 309 306 302 299 297 292 290 292 293 290 287 286 284 281 276 271 266 260 256 254 252 251 251 250 250 250 250 249 248 245 242 240 239 238 236 234 232 231 230 230 229 228 228 229 230 231 231 232 232 233 233 234 236 237 238 239 240 242 246 250 253 256 258 259 260 259 259 258 256 254 252 252
323 323 323 324 324 324 323 321 319 316 314 313 312 311 308 304 302 299 294 291 295 297 294 292 290 287 284 278 272 269 263 255 252 252 252 253 254 254 254 253 252 250 247 243 241 239 238 236 234 232 231 231 231 230 229 228 228 229 229 230 230 230 231 232 234 235 236 237 239 239 241 245 249 252 256 259 260 261 260 258 257 255 253 253 252
323 323 324 325 326 325 324 323 322 320 318 317 316 314 312 309 305 303 297 293 297 301 299 297 295 292 288 280 273 272 268 259 254 254 256 258 259 259 258 256 254 251 248 244 241 239 238 236 234 232 231 231 231 229 228 228 228 228 229 229 230 230 230 232 233 234 236 237 238 239 242 246 249 252 256 259 261 261 260 258 257 255 253 251 252
323 324 325 326 326 325 325 326 327 326 325 321 318 317 317 314 311 309 304 299 299 303 304 303 301 298 292 284 275 271 270 266 260 258 261 263 262 261 261 259 256 253 249 245 241 238 237 235 233 232 231 230 229 229 228 227 227 228 228 229 229 230 231 231 231 233 235 237 237 239 242 246 249 253 256 257 259 261 260 258 257 256 253 251 250
323 324 325 325 325 325 325 326 328 329 329 326 322 320 319 317 314 312 309 307 304 304 305 307 307 305 298 289 280 273 270 270 267 265 267 266 263 263 263 261 258 255 251 245 240 237 236 234 233 231 230 229 228 228 228 227 227 228 228 228 229 230 230 230 231 234 236 237 238 239 242 246 249 252 255 256 257 259 258 256 256 255 253 251 250
323 324 325 325 325 324 325 325 326 328 329 329 326 324 323 319 314 311 310 312 312 309 308 310 311 312 307 296 286 278 273 273 272 273 275 271 265 264 265 263 261 258 252 245 239 236 235 234 232 230 228 228 227 227 227 227 227 228 228 229 230 230 229 230 231 234 236 237 237 239 241 244 248 252 254 256 257 258 256 254 253 253 252 251 251
322 323 325 326 325 325 325 325 325 326 327 328 328 328 328 324 318 313 310 312 317 315 312 312 314 316 314 305 295 285 278 278 279 281 284 279 270 266 266 264 262 260 253 244 238 235 234 234 231 228 227 226 226 226 226 226 227 228 228 229 230 230 230 230 231 233 235 236 236 238 240 244 248 252 255 256 256 255 252 251 251 250 249 250 250
321 322 324 325 325 326 326 326 326 326 325 326 327 327 328 327 325 321 315 313 318 318 315 314 316 319 318 314 306 294 287 287 287 288 289 284 274 270 268 263 261 261 255 245 237 234 233 231 228 226 225 224 224 225 225 226 226 227 228 228 229 230 231 231 232 232 234 236 237 238 240 244 249 252 254 254 253 251 249 249 249 247 246 246 247
319 321 323 323 324 326 327 327 327 326 325 325 326 327 327 326 326 326 321 318 320 320 318 317 317 320 321 319 313 304 297 296 293 293 294 288 277 272 268 262 260 259 255 246 237 233 230 227 224 223 222 221 222 223 224 225 225 226 227 228 229 230 232 233 233 234 235 236 237 238 239 244 249 251 252 251 249 247 248 248 246 242 242 244 245
318 321 322 322 322 325 327 327 328 328 327 326 326 327 327 325 324 324 322 321 320 320 321 320 318 320 321 321 318 311 305 304 300 296 298 294 281 270 266 263 262 260 253 244 235 229 226 222 220 220 220 219 220 222 223 224 224 226 227 228 229 231 231 232 233 235 236 235 235 236 239 244 248 250 250 248 246 245 246 246 243 240 241 244 245
318 319 320 320 321 323 325 327 328 328 328 327 326 326 327 327 326 324 322 322 321 320 322 323 321 322 322 320 318 314 311 312 309 302 301 299 286 273 267 263 262 258 249 238 229 222 219 218 218 219 219 219 220 221 222 223 224 226 228 229 230 229 230 232 233 233 232 231 232 235 239 243 245 247 247 245 243 243 244 244 243 241 240 242 242
317 317 318 318 320 322 324 326 327 327 327 327 325 324 325 326 328 327 325 324 324 322 323 326 327 328 327 324 320 316 313 315 315 310 308 306 293 278 270 261 254 251 242 230 222 218 217 217 216 216 218 219 219 219 221 222 224 226 228 228 228 228 229 230 229 227 226 228 231 234 238 240 241 242 242 241 239 239 241 241 241 239 236 237 239
314 315 315 316 319 321 322 323 324 324 325 325 325 323 324 324 325 327 327 327 326 323 321 327 332 334 333 332 329 324 319 319 320 317 318 320 308 284 272 260 246 240 234 224 217 215 213 212 212 213 215 217 217 218 219 222 224 226 226 227 227 228 228 227 225 223 224 227 229 232 235 236 236 238 238 235 234 236 236 235 235 234 233 234 237
309 311 311 313 315 318 320 321 321 322 323 324 324 323 323 322 322 326 328 328 327 323 320 323 330 334 337 339 338 335 328 325 327 325 326 334 331 298 263 241 221 220 219 214 212 210 207 206 206 207 210 212 213 214 215 217 219 220 221 222 222 222 222 221 221 221 222 224 227 230 231 232 233 234 233 231 231 233 233 231 232 233 233 233 235
305 306 307 308 311 314 316 317 319 320 320 322 324 323 322 322 321 324 327 328 328 325 320 319 325 331 336 340 344 344 340 335 332 331 335 348 356 346 219 190 173 176 171 169 182 191 192 193 194 195 197 200 203 205 206 207 209 211 213 213 214 214 216 216 216 216 218 221 224 226 228 229 231 232 231 229 230 232 234 234 235 235 235 234 235
302 303 303 306 308 310 311 313 316 317 317 320 322 321 321 321 320 322 325 327 328 327 325 321 324 330 334 339 345 349 351 349 343 337 341 354 16 38 78 187 199 174 153 140 137 151 162 168 172 177 183 189 193 197 201 204 207 210 211 211 210 211 211 212 212 213 215 217 220 223 224 225 227 229 230 230 231 233 235 236 236 236 236 236 237
301 301 302 304 307 309 309 310 311 312 314 317 320 320 321 320 318 318 320 323 325 329 329 325 325 329 331 336 344 349 353 356 355 349 346 347 11 40 50 80 166 170 161 155 150 151 157 165 170 174 181 186 190 194 199 202 206 209 211 210 210 209 209 209 210 210 212 215 217 220 222 224 227 229 230 230 232 234 236 236 236 236 236 237 237
300 301 302 303 306 308 309 309 311 311 312 315 317 319 321 320 319 316 315 317 320 325 329 326 324 326 329 332 340 347 351 356 360 0 358 351 336 350 19 58 113 146 159 168 171 170 172 181 186 187 187 188 191 196 200 202 205 208 209 209 208 209 209 208 208 209 211 214 216 218 221 224 226 228 228 228 230 233 234 236 238 238 238 238 237
299 301 303 303 304 306 307 309 312 312 311 312 315 317 320 321 321 318 314 315 317 319 323 324 322 323 327 328 331 340 347 353 359 2 1 358 343 331 345 46 95 131 147 162 175 177 181 189 194 194 194 194 197 200 202 203 206 208 210 210 210 211 210 210 210 211 213 214 215 218 221 223 224 225 226 227 228 230 232 235 238 238 236 236 234
297 299 303 303 303 306 306 307 310 312 312 312 313 315 318 320 320 318 315 315 317 318 319 321 320 319 319 320 322 327 337 346 354 1 1 358 356 358 5 3 334 150 156 171 188 192 193 195 195 196 198 200 203 204 203 204 206 209 211 212 213 214 215 215 216 216 216 216 218 220 222 223 224 226 227 228 229 231 233 235 238 237 234 233 232
295 297 302 303 303 306 306 306 308 311 312 313 315 316 317 318 318 318 316 315 315 317 318 318 318 316 312 311 312 315 321 331 341 351 356 356 354 353 353 337 299 208 180 189 199 200 201 202 201 199 198 201 205 209 210 210 211 212 214 214 215 216 217 216 216 217 216 218 221 222 224 226 227 228 229 230 231 233 236 237 238 237 234 233 233
293 295 298 301 303 305 306 305 307 310 312 314 317 318 318 318 318 319 319 317 315 316 317 317 316 315 312 307 304 306 309 313 321 332 342 347 348 344 334 318 292 246 213 206 204 203 204 208 209 209 210 211 211 211 214 215 216 217 218 219 220 221 220 219 220 220 219 222 225 226 228 229 230 230 231 232 233 235 237 237 236 236 234 232 232
291 292 295 299 302 302 301 303 307 312 314 317 319 320 319 319 320 320 320 320 317 315 316 317 316 315 316 311 303 300 301 303 307 316 325 331 334 331 318 299 278 252 235 229 224 221 221 219 217 219 224 225 223 219 218 218 218 218 219 220 221 222 221 220 222 223 223 226 228 229 229 231 231 231 232 233 234 236 237 236 234 233 231 228 228
287 288 292 296 298 296 295 298 305 311 316 318 320 319 318 318 320 320 319 318 317 314 313 313 313 311 312 313 307 301 299 298 300 304 309 314 316 314 305 291 276 258 241 234 233 234 237 239 237 233 229 227 225 223 222 221 220 219 220 220 221 222 222 222 223 224 225 226 227 228 229 230 231 231 233 234 236 238 238 236 234 233 231 228 228
286 286 289 292 293 292 292 295 300 307 312 316 317 317 315 315 316 318 318 317 316 314 311 309 309 307 306 307 306 303 300 298 298 299 300 302 303 301 296 287 278 269 260 253 247 243 244 247 245 241 235 230 227 223 221 221 222 223 224 223 223 223 224 225 225 226 226 227 228 229 229 231 232 233 234 236 238 239 238 235 234 234 234 232 231
285 284 287 289 289 289 290 291 296 302 307 310 313 314 315 315 314 314 316 317 318 317 313 310 307 304 301 299 300 300 301 300 300 299 299 298 296 294 289 282 276 273 270 268 264 260 255 252 249 246 243 239 235 231 228 228 229 229 229 228 226 226 227 227 227 227 227 228 229 230 231 232 234 235 236 237 238 239 238 236 234 234 235 234 234
284 283 284 286 286 285 284 286 292 297 301 304 307 310 312 314 313 312 314 316 318 318 317 315 311 306 300 297 295 295 297 299 299 298 298 296 294 292 288 281 276 271 267 265 265 264 262 260 259 259 257 254 250 246 244 243 241 239 236 233 232 231 231 230 229 229 230 230 230 231 233 233 234 235 236 236 237 238 238 237 236 236 236 236 237
284 283 281 282 284 283 284 286 289 292 295 298 301 305 307 309 309 310 311 313 315 317 318 318 316 312 306 300 295 292 292 294 295 295 295 294 293 292 290 285 279 273 266 261 260 261 261 262 261 260 261 261 261 260 257 253 248 244 241 238 236 235 234 232 230 230 231 232 231 231 232 233 233 234 235 235 236 238 239 238 237 237 237 238 239
283 283 281 282 284 284 285 288 289 289 291 293 296 299 303 304 305 304 305 308 311 314 317 319 318 316 312 307 301 294 291 291 291 291 292 291 291 291 289 286 283 278 271 265 262 261 261 260 258 256 256 258 262 264 264 259 252 245 241 239 239 239 237 233 229 228 230 231 230 230 231 231 232 233 234 235 236 236 237 236 236 236 236 236 238
280 280 280 281 283 284 286 287 288 288 289 290 292 295 299 302 302 301 302 303 306 309 313 316 318 318 316 315 311 304 297 292 290 289 290 289 288 288 286 284 282 279 274 270 267 267 265 263 262 259 257 255 256 259 260 257 251 245 242 240 241 242 239 234 230 229 230 231 231 231 231 232 232 232 233 233 234 235 235 235 235 235 235 236 236
279 278 279 281 283 285 288 289 290 290 288 288 291 294 298 301 301 300 300 302 302 303 306 308 311 314 314 315 315 311 305 298 293 290 289 288 288 287 285 283 281 279 276 272 269 269 268 268 269 267 263 259 256 255 254 252 248 244 241 239 238 239 237 235 233 231 231 232 233 233 232 233 232 232 232 232 233 234 234 234 234 235 235 235 235
280 279 280 282 283 285 288 290 290 290 289 290 292 295 298 301 300 299 300 302 302 302 302 303 305 306 307 308 310 310 308 304 299 294 289 288 288 287 285 282 282 280 278 274 271 269 267 268 271 272 268 264 260 257 254 252 250 247 244 239 237 237 238 238 237 235 234 234 234 234 233 233 232 232 233 233 233 233 233 234 234 234 235 235 235
279 279 278 279 280 282 285 288 289 290 291 293 294 295 298 299 299 299 300 302 302 303 303 304 305 305 304 305 305 304 304 303 302 299 295 291 289 287 284 282 281 281 280 279 276 273 270 268 269 271 270 267 263 260 257 255 253 252 250 247 244 243 242 241 241 240 239 239 238 236 235 235 235 235 236 236 236 236 236 235 235 235 236 236 236
277 276 275 276 278 281 284 286 287 289 291 292 293 294 296 298 299 299 300 302 303 304 305 307 309 308 307 305 302 299 298 298 299 300 299 296 292 291 289 285 282 281 281 281 280 277 274 271 269 270 270 269 267 263 260 257 255 254 254 252 250 249 247 245 244 244 243 243 241 239 239 239 239 239 239 239 240 241 241 240 239 239 240 240 241
280 277 276 277 279 280 281 282 285 287 289 290 292 293 294 295 296 297 299 301 302 303 305 307 309 309 308 306 302 299 298 298 299 299 298 296 294 293 293 291 288 285 283 282 280 278 276 274 272 270 269 269 268 266 261 258 257 256 255 254 253 252 251 250 249 247 246 245 245 243 243 242 242 242 242 243 243 244 245 244 244 244 244 244 245
282 279 278 280 281 280 280 281 284 286 289 291 292 293 293 295 295 296 298 299 301 303 305 306 308 310 310 307 304 301 298 298 298 296 294 292 291 291 291 292 291 289 286 283 281 279 276 275 274 273 271 270 269 267 264 261 259 258 257 256 256 255 254 253 252 251 249 247 246 245 245 244 244 245 246 246 247 247 247 247 247 247 247 247 247
279 276 278 283 285 283 283 284 285 287 289 290 291 292 294 296 297 297 299 301 303 304 306 307 308 309 311 310 308 305 300 296 294 292 291 289 288 288 288 288 288 287 285 283 282 280 278 276 274 272 271 269 268 267 265 263 262 260 258 257 257 257 256 255 254 253 252 250 249 248 247 247 247 247 248 249 249 250 250 249 249 248 248 248 248
278 278 280 284 284 283 284 285 286 287 287 287 288 290 293 295 297 298 300 302 302 303 304 305 305 306 308 309 309 306 301 296 292 290 289 288 287 287 287 285 284 283 282 280 280 279 278 276 274 272 270 269 267 266 265 264 263 261 260 259 258 258 257 256 255 255 254 253 253 252 251 251 250 250 249 250 250 250 249 249 249 249 249 249 249
283 283 283 283 283 283 283 283 284 285 286 286 287 289 291 292 294 295 297 298 300 300 301 302 301 302 303 304 304 302 299 296 293 291 289 287 286 285 286 285 283 282 280 278 277 276 275 274 273 271 269 268 267 266 265 264 263 262 261 261 260 260 260 259 258 257 256 254 254 253 253 253 252 252 251 251 251 250 249 249 249 249 250 250 250
287 286 285 283 283 283 283 283 284 286 287 288 289 289 290 291 292 293 294 295 296 298 298 298 298 298 298 299 299 298 297 295 294 292 291 289 287 286 284 283 282 281 279 278 277 275 272 271 270 269 268 267 267 267 266 265 264 263 262 262 262 262 262 262 261 260 259 257 255 254 254 253 253 253 253 252 252 251 251 250 250 250 250 250 251
290 289 287 285 283 284 284 285 287 288 289 290 290 290 291 291 291 292 293 294 294 295 296 296 296 296 295 295 296 295 294 293 292 291 291 290 289 287 285 282 281 279 278 278 277 276 273 270 267 266 266 266 266 267 267 266 266 265 264 263 263 263 263 262 261 260 259 257 257 256 255 255 254 254 254 253 252 252 252 252 252 252 252 252 252
292 291 289 288 287 288 289 290 291 291 291 291 291 292 293 293 293 293 294 294 294 294 294 294 294 294 293 293 293 292 291 291 290 290 289 288 287 286 285 283 281 279 277 276 275 274 272 270 268 267 266 266 266 266 266 266 266 266 267 266 266 265 265 264 262 259 257 257 257 257 257 257 256 256 256 255 253 253 253 253 253 253 253 253 253
294 293 292 291 291 292 293 293 294 293 293 293 293 294 295 295 295 295 295 294 294 293 293 293 292 292 291 291 290 290 289 289 288 288 288 287 286 285 284 283 281 280 278 276 274 272 271 270 270 270 269 268 268 268 267 267 267 267 267 267 268 267 266 264 262 260 259 258 258 258 258 258 258 257 257 257 256 255 255 255 255 255 255 255 255
296 296 295 295 295 296 296 296 296 295 295 294 294 295 295 296 296 296 295 295 295 294 293 293 292 291 290 290 289 289 288 287 287 286 286 285 284 283 283 282 281 279 278 276 274 273 272 271 271 271 270 269 270 270 270 270 270 270 269 268 268 268 266 264 263 263 262 261 259 258 259 259 258 258 258 258 257 257 257 256 256 255 255 255 255
294 295 296 297 298 299 298 298 297 296 296 296 295 296 296 296 297 297 297 296 296 295 295 294 293 292 291 290 289 289 288 287 286 285 284 283 283 282 280 280 279 277 276 275 274 273 273 272 272 272 271 271 270 270 270 270 270 270 270 270 270 270 268 267 266 265 264 263 261 260 259 259 259 258 258 258 258 258 258 257 257 257 256 256 256
294 295 297 298 298 299 299 298 297 297 297 296 296 297 297 298 298 298 297 297 297 297 296 295 294 293 293 291 290 290 289 288 286 285 284 283 282 281 280 279 278 276 274 273 272 273 273 272 272 272 272 272 271 270 269 268 269 268 268 269 269 270 269 269 268 268 267 265 263 261 261 260 260 260 259 259 259 259 259 259 258 257 257 256 256
296 297 297 298 298 299 298 298 297 297 296 296 296 297 298 298 298 298 297 298 298 298 297 296 294 294 293 292 290 290 290 289 287 286 285 284 283 282 281 280 279 277 276 274 273 272 272 272 272 272 273 272 271 270 269 269 269 268 268 268 268 269 269 268 268 268 268 266 264 263 263 262 262 261 261 260 260 260 261 260 259 258 257 256 255